This is the latest recevied weather packets stored in our database for station/object XE2OR-10. If no packets are shown the sender has not sent any weather packets the latest 10 day(s).
| Time | Temp. | Humidity | Pressure | Rain* | Wind** | Luminosity | Snow |
|---|---|---|---|---|---|---|---|
| 1777873433 | 20° C | 75% | 1020.3 hPa | 0 mm | - | 0 W/m² | - |
| 1777873129 | 19.44° C | 75% | 1020.5 hPa | 0 mm | - | 0 W/m² | - |
| 1777872828 | 20° C | 76% | 1020.6 hPa | 0 mm | - | 0 W/m² | - |
| 1777872529 | 20° C | 75% | 1020.5 hPa | 0 mm | - | 0 W/m² | - |
| 1777872232 | 20° C | 74% | 1020.5 hPa | 0 mm | - | 0 W/m² | - |
| 1777871929 | 20° C | 74% | 1020.5 hPa | 0 mm | - | 0 W/m² | - |
| 1777871632 | 20° C | 73% | 1020.2 hPa | 0 mm | - | 0 W/m² | - |
| 1777871329 | 20° C | 73% | 1020.1 hPa | 0 mm | - | 0 W/m² | - |
| 1777871028 | 20.56° C | 73% | 1020.3 hPa | 0 mm | - | 0 W/m² | - |
| 1777870729 | 20.56° C | 73% | 1020.4 hPa | 0 mm | - | 0 W/m² | - |
| 1777870432 | 20.56° C | 72% | 1020.5 hPa | 0 mm | - | 0 W/m² | - |
| 1777870129 | 20.56° C | 72% | 1020.5 hPa | 0 mm | - | 0 W/m² | - |
| 1777869832 | 21.11° C | 71% | 1020.6 hPa | 0 mm | - | 0 W/m² | - |
| 1777869529 | 21.11° C | 70% | 1020.5 hPa | 0 mm | - | 0 W/m² | - |
| 1777869229 | 21.11° C | 70% | 1020.7 hPa | 0 mm | - | 0 W/m² | - |
| 1777868929 | 21.11° C | 69% | 1020.4 hPa | 0 mm | - | 0 W/m² | - |
| 1777868632 | 21.67° C | 69% | 1020.4 hPa | 0 mm | - | 0 W/m² | - |
| 1777868329 | 21.67° C | 68% | 1020.5 hPa | 0 mm | - | 0 W/m² | - |
| 1777868032 | 21.67° C | 68% | 1020.5 hPa | 0 mm | - | 0 W/m² | - |
| 1777867729 | 21.67° C | 67% | 1020.1 hPa | 0 mm | - | 0 W/m² | - |
| 1777867428 | 21.67° C | 67% | 1020.4 hPa | 0 mm | - | 0 W/m² | - |
| 1777867129 | 21.67° C | 67% | 1020.4 hPa | 0 mm | - | 0 W/m² | - |
| 1777866832 | 22.22° C | 67% | 1020.4 hPa | 0 mm | - | 0 W/m² | - |
| 1777866529 | 22.22° C | 67% | 1020.5 hPa | 0 mm | - | 0 W/m² | - |
| 1777866232 | 22.22° C | 66% | 1020.6 hPa | 0 mm | - | 0 W/m² | - |
* Rain latest hour (hover to see other rain measurements)
** Current wind speed in m/s (hover to see current wind gust speed)